Location: Newark
(30.0333°N, 31.2167°E)
Time: 00:58:03
(UTC+00:00)

Vanguard 3 - Pass Details

Date: 19 January 2020
Orbit: 508 x 3263 km, 33.3° (Epoch: 20 February)

Event Time Altitude Azimuth Distance (km) Brightness Sun altitude
Rises 16:44:39 0° 243° (WSW) 7,199 13.5 -18.1°
Reaches altitude 10° 16:49:30 10° 243° (WSW) 6,197 12.8 -19.1°
Maximum altitude 17:09:17 82° 159° (SSE) 2,746 9.6 -23.3°
Enters shadow 17:17:01 36° 77° (ENE) 3,225 9.6 -25.0°
